Terug naar catalogus

OTTER PUP 2

ActiefWetenschapSSO
NORAD 64537·PAYLOAD·🇺🇸 United States

Gelanceerd Jun 23, 2025 vanaf Vandenberg Space Force Base

Loading…

Volgende Passages (komende 24 uur)

TLE

VersSource: Space-Track

Epoch: Sep 14, 2026, 02:49 UTC

1 64537U 25135K   26257.11775107  .00000308  00000-0  15879-4 0  9997
2 64537  97.4807  12.2734 0002509 196.9714 163.1439 15.23532260 68419

Volg OTTER PUP 2 in realtime met AllMySat

Download on the App Store